This is the latest recevied weather packets stored in our database for station/object YF9UAG-17. If no packets are shown the sender has not sent any weather packets the latest 10 day(s).
| Time | Temp. | Humidity | Pressure | Rain* | Wind** | Luminosity | Snow |
|---|---|---|---|---|---|---|---|
| 1787805500 | 29.44° C | 52% | 1034.1 hPa | - | - | - | - |
| 1787804898 | 28.89° C | 53% | 1034.3 hPa | - | - | - | - |
| 1787804296 | 28.89° C | 52% | 1034.4 hPa | - | - | - | - |
| 1787803693 | 28.33° C | 52% | 1034.6 hPa | - | - | - | - |
| 1787803091 | 28.33° C | 52% | 1034.7 hPa | - | - | - | - |
| 1787802489 | 28.33° C | 51% | 1035 hPa | - | - | - | - |
| 1787801886 | 27.78° C | 51% | 1035.1 hPa | - | - | - | - |
| 1787801284 | 27.78° C | 53% | 1035.4 hPa | - | - | - | - |
| 1787800681 | 27.78° C | 54% | 1035.6 hPa | - | - | - | - |
| 1787800079 | 27.78° C | 53% | 1035.6 hPa | - | - | - | - |
| 1787799477 | 27.22° C | 54% | 1036 hPa | - | - | - | - |
| 1787798874 | 27.78° C | 54% | 1036.1 hPa | - | - | - | - |
| 1787798272 | 27.22° C | 55% | 1036.2 hPa | - | - | - | - |
| 1787797670 | 27.78° C | 53% | 1036.2 hPa | - | - | - | - |
| 1787797067 | 27.78° C | 53% | 1036.3 hPa | - | - | - | - |
| 1787796465 | 27.78° C | 52% | 1036.4 hPa | - | - | - | - |
| 1787795863 | 27.78° C | 52% | 1036.4 hPa | - | - | - | - |
| 1787795260 | 27.22° C | 53% | 1036.4 hPa | - | - | - | - |
| 1787794658 | 27.78° C | 50% | 1036.4 hPa | - | - | - | - |
| 1787794056 | 27.78° C | 52% | 1036.6 hPa | - | - | - | - |
| 1787793453 | 27.78° C | 54% | 1036.5 hPa | - | - | - | - |
| 1787792851 | 27.22° C | 57% | 1036.6 hPa | - | - | - | - |
| 1787792249 | 27.78° C | 56% | 1036.6 hPa | - | - | - | - |
| 1787791646 | 27.78° C | 56% | 1036.6 hPa | - | - | - | - |
| 1787791044 | 27.22° C | 56% | 1036.4 hPa | - | - | - | - |
* Rain since midnight (hover to see other rain measurements)
** Current wind speed in m/s (hover to see current wind gust speed)